[Date Prev][Date Next][Thread Prev][Thread Next] - [Date Index][Thread Index][Author Index]

2 Line ISS Keps 12-29



ISS
1 25544U 98067A   02363.16623843  .00019873  00000-0  26352-3 0  5217
2 25544  51.6349 154.2433 0004209 331.5393  15.4313 15.58246826234513


----
Via the sarex mailing list at AMSAT.ORG courtesy of AMSAT-NA.
To unsubscribe, send "unsubscribe sarex" to Majordomo@amsat.org



AMSAT Top AMSAT Home